SWR121 LEMG-LSZH

Flight info

Callsign SWR121
Flight time N/A
Altitude 36000
Route BLN DCT ANZAN DCT NASOS DCT INTAX DCT CJN DCT BRITO DCT YAKXU DCT RONNY DCT TOPTU DCT TOU DCT GAI DCT MEN/N0446F320 DCT NINUN DCT LATAM DCT ETREK DCT LTP/N0441F300 DCT SOPLO DCT OMASI DCT KINNI DCT LAMUR DCT GUDAX Z57 DOPIL
Aircraft A333/H-SDE3GHIJ2J3J5M1RVWXY/LB2D1

Departure

Time 2026-04-30 11:42
Airport Málaga-Costa del Sol Airport (LEMG)

Arrival

Time N/A
Airport Zürich Airport (LSZH)
Time Latitude Longitude Altitude Speed Heading
2026-04-30 11:27 36.67626 -4.49429 52 ft 0 kts 47°
2026-04-30 11:33 36.67606 -4.49457 52 ft 3 kts 47°
2026-04-30 11:33 36.67592 -4.49476 49 ft 3 kts 47°
2026-04-30 11:33 36.67578 -4.49495 49 ft 3 kts 47°
2026-04-30 11:33 36.67563 -4.49511 52 ft 3 kts 28°
2026-04-30 11:34 36.67544 -4.49519 52 ft 3 kts 356°
2026-04-30 11:34 36.67527 -4.49511 52 ft 1 kts 309°
2026-04-30 11:34 36.67531 -4.49517 52 ft 2 kts 309°
2026-04-30 11:34 36.67549 -4.49546 52 ft 7 kts 305°
2026-04-30 11:35 36.67575 -4.49613 52 ft 10 kts 283°
2026-04-30 11:35 36.67564 -4.49688 46 ft 0 kts 241°
2026-04-30 11:35 36.67563 -4.49688 46 ft 0 kts 240°
2026-04-30 11:35 36.67562 -4.49691 46 ft 1 kts 245°
2026-04-30 11:36 36.67563 -4.49699 48 ft 1 kts 270°
2026-04-30 11:36 36.67565 -4.49703 47 ft 1 kts 290°
2026-04-30 11:36 36.67572 -4.49724 51 ft 4 kts 290°
2026-04-30 11:36 36.67591 -4.49756 47 ft 6 kts 312°
2026-04-30 11:37 36.67625 -4.49802 49 ft 9 kts 312°
2026-04-30 11:37 36.67674 -4.49870 49 ft 5 kts 312°
2026-04-30 11:37 36.67681 -4.49880 47 ft 3 kts 309°
2026-04-30 11:37 36.67703 -4.49912 49 ft 7 kts 311°
2026-04-30 11:38 36.67740 -4.49965 47 ft 10 kts 312°
2026-04-30 11:38 36.67793 -4.50039 46 ft 13 kts 311°
2026-04-30 11:38 36.67861 -4.50133 49 ft 16 kts 312°
2026-04-30 11:38 36.67941 -4.50244 47 ft 18 kts 312°
2026-04-30 11:39 36.68012 -4.50342 49 ft 13 kts 312°
2026-04-30 11:39 36.68078 -4.50435 49 ft 15 kts 311°
2026-04-30 11:39 36.68151 -4.50539 46 ft 17 kts 311°
2026-04-30 11:39 36.68231 -4.50652 49 ft 18 kts 311°
2026-04-30 11:40 36.68318 -4.50774 47 ft 19 kts 312°
2026-04-30 11:40 36.68398 -4.50884 47 ft 10 kts 311°
2026-04-30 11:40 36.68449 -4.50956 50 ft 12 kts 311°
2026-04-30 11:40 36.68499 -4.51044 48 ft 13 kts 286°
2026-04-30 11:41 36.68484 -4.51149 50 ft 12 kts 252°
2026-04-30 11:41 36.68442 -4.51208 54 ft 8 kts 193°
2026-04-30 11:41 36.68395 -4.51176 55 ft 8 kts 131°
2026-04-30 11:41 36.68323 -4.51073 49 ft 37 kts 131°
2026-04-30 11:42 36.67955 -4.50563 49 ft 121 kts 132°
2026-04-30 11:42 36.67228 -4.49560 293 ft 177 kts 134°
2026-04-30 11:42 36.66354 -4.48393 1336 ft 192 kts 134°
2026-04-30 11:42 36.65445 -4.47120 2611 ft 201 kts 131°
2026-04-30 11:43 36.64541 -4.45834 3525 ft 190 kts 132°
2026-04-30 11:43 36.63598 -4.44503 3862 ft 219 kts 132°
2026-04-30 11:43 36.62560 -4.43046 4549 ft 229 kts 132°
2026-04-30 11:43 36.61496 -4.41552 5420 ft 232 kts 133°
2026-04-30 11:44 36.60464 -4.40028 6352 ft 235 kts 127°
2026-04-30 11:44 36.59768 -4.38161 7251 ft 242 kts 109°
2026-04-30 11:44 36.59371 -4.36107 8133 ft 246 kts 105°
2026-04-30 11:44 36.59032 -4.34006 8995 ft 250 kts 104°
2026-04-30 11:45 36.58690 -4.31867 9844 ft 254 kts 105°
2026-04-30 11:45 36.58450 -4.29667 10591 ft 261 kts 92°
2026-04-30 11:45 36.58887 -4.27440 11249 ft 275 kts 64°
2026-04-30 11:45 36.59987 -4.25425 11844 ft 287 kts 54°
2026-04-30 11:46 36.61250 -4.23475 12561 ft 293 kts 52°
2026-04-30 11:46 36.62627 -4.21579 13285 ft 299 kts 41°
2026-04-30 11:46 36.64434 -4.20234 13852 ft 311 kts 22°
2026-04-30 11:46 36.66539 -4.19301 14107 ft 332 kts 17°
2026-04-30 11:47 36.68812 -4.18413 14348 ft 352 kts 17°
2026-04-30 11:47 36.71213 -4.17481 14612 ft 371 kts 16°
2026-04-30 11:47 36.73724 -4.16522 15070 ft 382 kts 16°
2026-04-30 11:47 36.76287 -4.15539 15727 ft 387 kts 17°
2026-04-30 11:48 36.78874 -4.14539 16446 ft 391 kts 17°
2026-04-30 11:48 36.81483 -4.13526 17153 ft 394 kts 17°
2026-04-30 11:48 36.84117 -4.12501 17849 ft 398 kts 17°
2026-04-30 11:48 36.86768 -4.11468 18529 ft 402 kts 17°
2026-04-30 11:49 36.89447 -4.10422 19109 ft 406 kts 17°
2026-04-30 11:49 36.92155 -4.09364 19651 ft 410 kts 17°
2026-04-30 11:49 36.94893 -4.08294 20208 ft 414 kts 17°
2026-04-30 11:49 36.97656 -4.07212 20750 ft 418 kts 17°
2026-04-30 11:50 37.00447 -4.06119 21262 ft 422 kts 17°
2026-04-30 11:50 37.03266 -4.05013 21801 ft 426 kts 16°
2026-04-30 11:50 37.06106 -4.03899 22323 ft 430 kts 17°
2026-04-30 11:50 37.08972 -4.02774 22836 ft 434 kts 16°
2026-04-30 11:51 37.11856 -4.01640 23354 ft 437 kts 16°
2026-04-30 11:51 37.14772 -4.00493 23803 ft 441 kts 16°
2026-04-30 11:51 37.17712 -3.99338 24219 ft 444 kts 16°
2026-04-30 11:51 37.20678 -3.98211 24648 ft 447 kts 15°
2026-04-30 11:52 37.23669 -3.97095 25053 ft 450 kts 15°
2026-04-30 11:52 37.26680 -3.95973 25461 ft 453 kts 15°
2026-04-30 11:52 37.29716 -3.94840 25876 ft 456 kts 15°
2026-04-30 11:52 37.32763 -3.93703 26290 ft 459 kts 15°
2026-04-30 11:53 37.35839 -3.92552 26697 ft 462 kts 15°
2026-04-30 11:53 37.38922 -3.91397 27091 ft 465 kts 15°
2026-04-30 11:53 37.42041 -3.90228 27501 ft 468 kts 15°
2026-04-30 11:53 37.45165 -3.89056 27873 ft 471 kts 15°
2026-04-30 11:54 37.48325 -3.87869 28255 ft 474 kts 15°
2026-04-30 11:54 37.51497 -3.86677 28635 ft 477 kts 15°
2026-04-30 11:54 37.54648 -3.85491 29020 ft 480 kts 15°
2026-04-30 11:54 37.57896 -3.84267 29404 ft 483 kts 15°
2026-04-30 11:55 37.61094 -3.83062 29776 ft 486 kts 15°
2026-04-30 11:55 37.64346 -3.81835 30140 ft 489 kts 15°
2026-04-30 11:55 37.67618 -3.80600 30423 ft 492 kts 15°
2026-04-30 11:55 37.70902 -3.79358 30747 ft 495 kts 15°
2026-04-30 11:56 37.74215 -3.78104 31093 ft 497 kts 15°
2026-04-30 11:56 37.77526 -3.76850 31427 ft 499 kts 15°
2026-04-30 11:56 37.80857 -3.75588 31761 ft 501 kts 16°
2026-04-30 11:56 37.84201 -3.74319 32120 ft 502 kts 16°
2026-04-30 11:57 37.87540 -3.73051 32590 ft 500 kts 16°
2026-04-30 11:57 37.90867 -3.71786 33089 ft 498 kts 16°
2026-04-30 11:57 37.94172 -3.70528 33615 ft 495 kts 16°
2026-04-30 11:57 37.97461 -3.69276 34059 ft 493 kts 16°
2026-04-30 11:58 38.00745 -3.68024 34391 ft 493 kts 16°
2026-04-30 11:58 38.04032 -3.66770 34716 ft 493 kts 16°
2026-04-30 11:58 38.07316 -3.65516 35034 ft 493 kts 16°
2026-04-30 11:58 38.10607 -3.64258 35372 ft 492 kts 16°
2026-04-30 11:59 38.13886 -3.63003 35705 ft 492 kts 16°
2026-04-30 11:59 38.17141 -3.61676 36008 ft 493 kts 18°
2026-04-30 11:59 38.23527 -3.58722 36074 ft 484 kts 20°
2026-04-30 12:00 38.29804 -3.55682 36080 ft 482 kts 20°
2026-04-30 12:00 38.36073 -3.52672 36083 ft 482 kts 20°
2026-04-30 12:01 38.42364 -3.49682 36078 ft 482 kts 20°